TimeMDT,TemperatureF,Dew PointF,Humidity,Sea Level PressureIn,VisibilityMPH,Wind Direction,Wind SpeedMPH,Gust SpeedMPH,PrecipitationIn,Events,Conditions,WindDirDegrees,DateUTC
12:53 AM,50.0,16.0,26,29.75,10.0,SW,9.2,-,N/A,,Clear,220,2013-06-23 06:53:00
1:53 AM,48.0,17.1,29,29.79,10.0,SW,10.4,-,N/A,,Clear,220,2013-06-23 07:53:00
2:53 AM,48.0,19.0,32,29.81,10.0,WSW,11.5,-,N/A,,Clear,240,2013-06-23 08:53:00
3:53 AM,44.1,37.0,76,29.82,10.0,NNE,6.9,-,N/A,,Clear,30,2013-06-23 09:53:00
4:53 AM,41.0,37.9,89,29.85,10.0,NNE,4.6,-,N/A,,Clear,30,2013-06-23 10:53:00
5:53 AM,37.0,34.0,89,29.88,10.0,SSE,3.5,-,N/A,,Clear,160,2013-06-23 11:53:00
6:53 AM,45.0,39.9,82,29.86,10.0,ENE,5.8,-,N/A,,Clear,60,2013-06-23 12:53:00
7:53 AM,50.0,41.0,71,29.86,10.0,ENE,6.9,-,N/A,,Clear,60,2013-06-23 13:53:00
8:53 AM,55.9,34.0,44,29.84,10.0,South,6.9,-,N/A,,Clear,190,2013-06-23 14:53:00
9:53 AM,62.1,24.1,23,29.82,10.0,WSW,4.6,-,N/A,,Clear,240,2013-06-23 15:53:00
10:53 AM,68.0,21.9,17,29.80,10.0,SSW,10.4,16.1,N/A,,Clear,210,2013-06-23 16:53:00
11:53 AM,72.0,25.0,17,29.75,10.0,SSE,11.5,19.6,N/A,,Clear,150,2013-06-23 17:53:00
12:53 PM,73.9,23.0,15,29.73,10.0,Variable,6.9,18.4,N/A,,Clear,0,2013-06-23 18:53:00
1:53 PM,78.1,18.0,10,29.72,10.0,WSW,18.4,27.6,N/A,,Clear,250,2013-06-23 19:53:00
2:53 PM,79.0,17.1,10,29.69,10.0,South,9.2,28.8,N/A,,Clear,190,2013-06-23 20:53:00
3:53 PM,79.0,18.0,10,29.69,10.0,West,11.5,21.9,N/A,,Clear,270,2013-06-23 21:53:00
4:53 PM,79.0,19.0,11,29.70,10.0,WSW,15.0,21.9,N/A,,Clear,250,2013-06-23 22:53:00
5:18 PM,78.8,17.6,10,29.99,10.0,WSW,11.5,23.0,N/A,,Clear,250,2013-06-23 23:18:00
5:53 PM,75.0,37.0,25,29.73,10.0,South,10.4,18.4,N/A,,Clear,170,2013-06-23 23:53:00
6:53 PM,73.9,39.0,28,29.70,10.0,SE,16.1,20.7,N/A,,Clear,140,2013-06-24 00:53:00
7:53 PM,68.0,42.1,39,29.71,10.0,SE,20.7,-,N/A,,Clear,140,2013-06-24 01:53:00
8:53 PM,64.9,44.1,47,29.70,10.0,SE,17.3,23.0,N/A,,Clear,140,2013-06-24 02:53:00
9:53 PM,64.9,37.9,37,29.68,10.0,South,15.0,24.2,N/A,,Scattered Clouds,170,2013-06-24 03:53:00
10:53 PM,60.1,35.1,39,29.68,10.0,South,10.4,-,N/A,,Clear,190,2013-06-24 04:53:00
11:53 PM,59.0,39.9,49,29.69,10.0,SSE,17.3,-,N/A,,Clear,150,2013-06-24 05:53:00